Flag for Slovakia Weather past 2 weeks in Prešov, Slovakia

Now
59 °F

Snow. More clouds than sun.


Feels Like: 59 °F
Forecast: 50 / 58 °F
Wind: 2 mph from North

Location: Kosice - Barca

Current Time: May 26, 2015 at 10:10:29 AM

Latest Report: May 26, 2015 at 9:30 AM


Visibility: N/A

Pressure: 29.74 "Hg

Humidity: 94%

Dew point: 57 °F

Location of PrešovLocation

Historic Weather in Prešov — Graph

°F

Prešov temperature yesterday

Maximum temperature yesterday: 72 °F (at 3:00 PM)
Minimum temperature yesterday: 57 °F (at 12:00 AM)
Average temperature yesterday: 61 °F

Past Weeks' High & Low Weather Summary

 TemperatureHumidityPressure
High79 °F (May 19, 3:30 PM)100% (May 12, 3:30 AM)30.33 "Hg (May 12, 3:30 AM)
Low37 °F (May 12, 2:30 AM)27% (May 12, 4:30 PM)29.71 "Hg (May 14, 3:30 PM)
Average59 °F69%29.98 "Hg
* Reported May 11 9:00 AM — May 26 9:00 AM, Prešov, Weather by CustomWeather, © 2015

Note: Actual official high and low records may vary slightly from our data, if they occured in-between our weather recording intervals... More about our weather records

Advertising

Prešov weather history for previous 24 hours

 ConditionsComfort  
Time TempWeatherWind HumidityBarometerVisibility
9:00 AM
Tue, May 26
61 °FLight rain. More clouds than sun.3 mph88%29.74 "Hg4 mi
8:30 AM61 °FBroken clouds.1 mph88%29.74 "HgN/A
8:00 AM59 °FOvercast.1 mph94%29.74 "HgN/A
7:30 AM59 °FOvercast.3 mph94%29.74 "HgN/A
7:00 AM59 °FOvercast.2 mph94%29.74 "HgN/A
6:30 AM59 °FSprinkles. Broken clouds.2 mph94%29.74 "HgN/A
6:00 AM59 °FSprinkles. Partly sunny.3 mph88%29.74 "HgN/A
5:30 AM59 °FPassing clouds.1 mph88%29.74 "HgN/A
5:00 AM57 °FOvercast.3 mph94%29.74 "HgN/A
4:30 AM57 °FOvercast.6 mph94%29.74 "HgN/A
4:00 AM57 °FOvercast.7 mph94%29.74 "HgN/A
3:30 AM57 °FOvercast.6 mph94%29.74 "HgN/A
3:00 AM57 °FOvercast.7 mph94%29.74 "HgN/A
2:30 AM57 °FPassing clouds.7 mph94%29.74 "HgN/A
2:00 AM59 °FPassing clouds.6 mph88%29.74 "HgN/A
1:30 AM57 °FPassing clouds.6 mph94%29.77 "HgN/A
1:00 AM57 °FPassing clouds.2 mph94%29.74 "HgN/A
12:30 AM57 °FPassing clouds.5 mph94%29.74 "HgN/A
12:00 AM57 °FPassing clouds.3 mph94%29.77 "HgN/A
11:30 PM
Mon, May 25
57 °FPassing clouds.3 mph100%29.74 "HgN/A
10:30 PM59 °FClear.6 mph94%29.74 "Hg10 mi
10:00 PM59 °FSprinkles. Passing clouds.7 mph94%29.74 "HgN/A
9:30 PM59 °FSprinkles. Partly cloudy.7 mph94%29.74 "HgN/A
9:00 PM59 °FSprinkles. Broken clouds.9 mph94%29.77 "HgN/A
8:30 PM59 °FThunderstorms. Scattered clouds.9 mph94%29.80 "Hg4 mi
8:00 PM59 °FThunderstorms. Scattered clouds.10 mph94%29.80 "Hg4 mi
7:30 PM61 °FThunderstorms. Scattered clouds.15 mph88%29.77 "Hg5 mi
7:00 PM61 °FThunderstorms. Broken clouds.14 mph88%29.77 "HgN/A
6:30 PM63 °FThunderstorms. Broken clouds.12 mph83%29.77 "HgN/A
6:00 PM64 °FPartly sunny.15 mph73%29.74 "HgN/A
5:30 PM66 °FScattered clouds.17 mph68%29.77 "HgN/A
5:00 PM68 °FPassing clouds.17 mph69%29.74 "HgN/A
4:30 PM70 °FPassing clouds.16 mph64%29.74 "HgN/A
4:00 PM72 °FPassing clouds.14 mph65%29.77 "HgN/A
3:30 PM70 °FSunny.12 mph69%29.77 "Hg10 mi
3:00 PM72 °FSunny.13 mph65%29.77 "Hg10 mi
2:30 PM70 °FSunny.13 mph69%29.80 "Hg10 mi
2:00 PM70 °FSunny.13 mph69%29.80 "Hg10 mi
1:30 PM68 °FSunny.13 mph73%29.80 "Hg10 mi
1:00 PM68 °FSunny.14 mph73%29.80 "Hg10 mi
12:30 PM66 °FSunny.14 mph73%29.83 "Hg10 mi
12:00 PM64 °FSunny.15 mph78%29.83 "Hg10 mi
11:30 AM64 °FSunny.13 mph78%29.83 "Hg10 mi
11:00 AM61 °FScattered clouds.14 mph88%29.83 "HgN/A
10:30 AM59 °FSprinkles. Scattered clouds.10 mph82%29.83 "HgN/A
10:00 AM59 °FThunderstorms. Scattered clouds.9 mph88%29.86 "HgN/A
Weather by CustomWeather, © 2015

See weather overviewHow to use our weather pages